Regional Weather Roundup
Issued by NWS

Home | Current Version | Previous Version | Text Only | Print | Product List | Glossary On
Versions: 1 2 3 4 5 6 7 8 9 10 11 12 13 14 15 16 17 18 19 20 21 22 23 24 25 26 27 28 29 30 31 32 33 34 35 36 37 38 39 40 41 42 43 44 45 46 47 48 49 50
000
ASUS45 KCYS 222010
RWRWY

WYOMING REGIONAL WEATHER ROUNDUP
NATIONAL WEATHER SERVICE CHEYENNE WY
200 PM MDT MON SEP 22 2014

NOTE:  "FAIR" INDICATES FEW OR NO CLOUDS BELOW 12,000 FEET
WITH NO SIGNIFICANT WEATHER AND/OR OBSTRUCTIONS TO VISIBILITY.

WYZ001-222100-
YELLOWSTONE NATIONAL PARK

CITY           SKY/WX    TMP DP  RH WIND       PRES   REMARKS
LK YELLOWSTONE   N/A     50  47  89 VRB3      30.28F
W YELLOWSTONE  NOT AVBL

$$
WYZ002>013-054>058-071-098>099-222100-
NORTHERN WYOMING

CITY           SKY/WX    TMP DP  RH WIND       PRES   REMARKS
JACKSON        CLOUDY    57  52  82 S9G16     30.21F
CODY           MOSUNNY   75  43  31 SW13G20   30.02F
GREYBULL       PTSUNNY   77  46  33 SE6       29.97F
WORLAND        PTSUNNY   76  47  35 N6        29.99F
SHERIDAN       PTSUNNY   79  48  33 N8        29.95F
BUFFALO        PTSUNNY   73  45  36 N13       30.00F
GILLETTE       PTSUNNY   80  47  31 S20G25    29.96S
HULETT         FAIR      81  46  30 MISG      29.99
NEWCASTLE      FAIR      77  43  29 MISG      30.02

$$
WYZ014>020-022>026-101>103-222100-
CENTRAL WYOMING

CITY           SKY/WX    TMP DP  RH WIND       PRES   REMARKS
BIG PINEY      PTSUNNY   61  45  55 W14       30.25F
PINEDALE       MOCLDY    57  45  62 NW5       30.26F
DUBOIS         MOCLDY    59  41  51 W20       30.20S
LANDER         PTSUNNY   74  41  30 NW10G23   30.07F
RIVERTON       PTSUNNY   64  48  56 W10       30.10F
CASPER         CLOUDY    71  43  36 SW16G28   30.09F
DOUGLAS        CLOUDY    73  42  32 W20G29    30.08S

$$
WYZ021-027>030-104>119-222100-
SOUTHERN WYOMING

CITY           SKY/WX    TMP DP  RH WIND       PRES   REMARKS
EVANSTON       PTSUNNY   66  42  41 W14G25    30.26F
KEMMERER       MOCLDY    63  45  51 W17G23    30.27F
FORT BRIDGER   FAIR      68  43  41 W17G24    30.28F
ROCK SPRINGS   PTSUNNY   63  48  58 W12       30.23F
DIXON          FAIR      67  49  54 S15G22    30.26F
RAWLINS        RAIN      53  47  79 SW16G29   30.24R
SARATOGA       FAIR      64  45  48 SW9       30.25F
LARAMIE        PTSUNNY   62  44  51 W12       30.25F
CHEYENNE       CLOUDY    65  53  65 W10       30.19F
TORRINGTON     TSTM      64  57  78 SW17G28   30.10R
PINE BLUFFS    FAIR      72  50  46 SW12      30.15R

$$


USA.gov is the U.S. government's official web portal to all federal, state and local government web resources and services.